Location: Newark
(13.8117°N, 3.6025°W)
Time: 22:29:00
(UTC+00:00)

Courier 1B - Pass Details

Date: 22 August 2019
Orbit: 962 x 1209 km, 28.3° (Epoch: 21 September)

Event Time Altitude Azimuth Distance (km) Brightness Sun altitude
Rises 21:02:48 0° 303° (WNW) 3,657 11.5 -35.5°
Reaches altitude 10° 21:05:57 10° 316° (NW) 2,693 10.5 -36.2°
Enters shadow 21:10:10 24° 356° (N) 1,848 9.1 -37.1°
